Time,TemperatureF,DewpointF,PressureIn,WindDirection,WindDirectionDegrees,WindSpeedMPH,WindSpeedGustMPH,Humidity,HourlyPrecipIn,Conditions,Clouds,dailyrainin,SoftwareType,DateUTC
2013-01-24 00:05:00,38.0,38.0,30.13,NE,37,0.0,0.0,100,0.00,,,0.40,Wunderground v.1.15,2013-01-24 08:05:00,
2013-01-24 00:35:00,38.0,38.0,30.14,East,89,0.0,2.0,100,0.00,,,0.00,Wunderground v.1.15,2013-01-24 08:35:00,
2013-01-24 01:05:00,37.9,37.9,30.14,SSE,152,0.0,0.0,100,0.00,,,0.00,Wunderground v.1.15,2013-01-24 09:05:00,
2013-01-24 01:35:00,37.5,37.5,30.14,SE,137,0.0,0.0,100,0.00,,,0.00,Wunderground v.1.15,2013-01-24 09:35:00,
2013-01-24 02:05:00,37.3,37.3,30.14,ESE,109,0.0,0.0,100,0.00,,,0.00,Wunderground v.1.15,2013-01-24 10:05:00,
2013-01-24 02:35:00,37.2,37.2,30.14,SSE,157,0.0,0.0,100,0.00,,,0.00,Wunderground v.1.15,2013-01-24 10:35:00,
2013-01-24 03:05:00,36.9,36.9,30.14,East,100,0.0,0.0,100,0.00,,,0.00,Wunderground v.1.15,2013-01-24 11:05:00,
2013-01-24 03:35:00,36.5,36.5,30.14,East,89,0.0,2.0,100,0.00,,,0.00,Wunderground v.1.15,2013-01-24 11:35:00,
2013-01-24 04:05:00,36.2,36.2,30.13,ESE,114,0.0,0.0,100,0.00,,,0.00,Wunderground v.1.15,2013-01-24 12:05:00,
2013-01-24 04:35:00,36.3,36.3,30.12,ENE,65,0.0,2.0,100,0.00,,,0.00,Wunderground v.1.15,2013-01-24 12:35:00,
2013-01-24 05:05:00,36.0,36.0,30.11,East,86,0.0,0.0,100,0.00,,,0.00,Wunderground v.1.15,2013-01-24 13:05:00,
2013-01-24 05:35:00,36.2,36.2,30.12,ENE,66,0.0,0.0,100,0.00,,,0.00,Wunderground v.1.15,2013-01-24 13:35:00,
2013-01-24 06:05:00,36.8,36.8,30.11,East,80,0.0,1.0,100,0.00,,,0.00,Wunderground v.1.15,2013-01-24 14:05:00,
2013-01-24 06:35:00,36.8,36.8,30.10,ENE,73,1.0,1.0,100,0.00,,,0.00,Wunderground v.1.15,2013-01-24 14:35:00,
2013-01-24 07:05:00,36.9,36.9,30.10,NE,52,1.0,1.0,100,0.00,,,0.00,Wunderground v.1.15,2013-01-24 15:05:00,
2013-01-24 07:35:00,36.9,36.9,30.09,NE,42,0.0,0.0,100,0.00,,,0.00,Wunderground v.1.15,2013-01-24 15:35:00,
2013-01-24 08:05:00,37.3,37.3,30.08,NE,35,1.0,1.0,100,0.00,,,0.00,Wunderground v.1.15,2013-01-24 16:05:00,
2013-01-24 08:35:00,38.5,38.5,30.07,NNE,28,1.0,3.0,100,0.00,,,0.00,Wunderground v.1.15,2013-01-24 16:35:00,
2013-01-24 09:05:00,39.2,39.2,30.08,East,82,2.0,2.0,100,0.00,,,0.00,Wunderground v.1.15,2013-01-24 17:05:00,
2013-01-24 09:35:00,40.5,40.5,30.08,NE,45,2.0,3.0,100,0.00,,,0.00,Wunderground v.1.15,2013-01-24 17:35:00,
2013-01-24 10:05:00,41.2,41.2,30.09,East,79,1.0,1.0,100,0.00,,,0.00,Wunderground v.1.15,2013-01-24 18:05:00,
2013-01-24 10:35:00,42.3,42.3,30.10,North,356,1.0,1.0,100,0.00,,,0.00,Wunderground v.1.15,2013-01-24 18:35:00,
2013-01-24 11:05:00,43.8,43.8,30.09,ENE,58,1.0,1.0,100,0.00,,,0.00,Wunderground v.1.15,2013-01-24 19:05:00,
2013-01-24 11:35:00,45.5,45.5,30.08,South,169,1.0,1.0,100,0.00,,,0.00,Wunderground v.1.15,2013-01-24 19:35:00,
2013-01-24 12:05:00,47.6,47.6,30.07,SSW,205,1.0,1.0,100,0.00,,,0.00,Wunderground v.1.15,2013-01-24 20:05:00,
2013-01-24 12:35:00,48.9,48.9,30.06,ENE,66,0.0,1.0,100,0.00,,,0.00,Wunderground v.1.15,2013-01-24 20:35:00,
2013-01-24 13:05:00,50.1,50.1,30.04,ESE,116,0.0,0.0,100,0.00,,,0.00,Wunderground v.1.15,2013-01-24 21:05:00,
2013-01-24 13:35:00,52.6,52.1,30.04,SE,130,0.0,0.0,98,0.00,,,0.00,Wunderground v.1.15,2013-01-24 21:35:00,
2013-01-24 14:05:00,52.9,51.2,30.05,SE,130,0.0,0.0,94,0.00,,,0.00,Wunderground v.1.15,2013-01-24 22:05:00,
2013-01-24 14:35:00,52.6,51.8,30.05,SE,130,0.0,0.0,97,0.00,,,0.00,Wunderground v.1.15,2013-01-24 22:35:00,
2013-01-24 15:05:00,52.3,52.3,30.05,SW,230,0.0,1.0,100,0.00,,,0.00,Wunderground v.1.15,2013-01-24 23:05:00,
2013-01-24 15:35:00,51.7,51.7,30.05,NNW,336,0.0,0.0,100,0.00,,,0.00,Wunderground v.1.15,2013-01-24 23:35:00,
2013-01-24 16:05:00,51.0,51.0,30.06,North,0,0.0,0.0,100,0.00,,,0.00,Wunderground v.1.15,2013-01-25 00:05:00,
2013-01-24 16:35:00,50.4,50.4,30.08,WNW,296,0.0,0.0,100,0.00,,,0.00,Wunderground v.1.15,2013-01-25 00:35:00,
2013-01-24 17:05:00,49.8,49.8,30.07,West,272,0.0,0.0,100,0.00,,,0.00,Wunderground v.1.15,2013-01-25 01:05:00,
2013-01-24 17:35:00,49.4,49.4,30.08,West,272,0.0,0.0,100,0.00,,,0.00,Wunderground v.1.15,2013-01-25 01:35:00,
2013-01-24 18:05:00,48.9,48.9,30.08,West,272,0.0,0.0,100,0.00,,,0.00,Wunderground v.1.15,2013-01-25 02:05:00,
2013-01-24 18:35:00,48.6,48.6,30.10,West,272,0.0,0.0,100,0.00,,,0.01,Wunderground v.1.15,2013-01-25 02:35:00,
2013-01-24 19:05:00,48.5,48.5,30.09,West,272,0.0,0.0,100,0.12,,,0.04,Wunderground v.1.15,2013-01-25 03:05:00,
2013-01-24 19:35:00,48.0,48.0,30.10,West,272,0.0,0.0,100,0.15,,,0.08,Wunderground v.1.15,2013-01-25 03:35:00,
2013-01-24 20:05:00,47.6,47.6,30.10,West,272,0.0,0.0,100,0.04,,,0.10,Wunderground v.1.15,2013-01-25 04:05:00,
2013-01-24 20:35:00,47.3,47.3,30.10,ENE,71,0.0,0.0,100,0.05,,,0.12,Wunderground v.1.15,2013-01-25 04:35:00,
2013-01-24 21:05:00,46.8,46.8,30.10,ENE,68,0.0,0.0,100,0.00,,,0.13,Wunderground v.1.15,2013-01-25 05:05:00,
2013-01-24 21:35:00,46.5,46.5,30.10,ENE,62,0.0,0.0,100,0.00,,,0.14,Wunderground v.1.15,2013-01-25 05:35:00,
2013-01-24 22:05:00,46.2,46.2,30.10,NNW,339,0.0,0.0,100,0.06,,,0.16,Wunderground v.1.15,2013-01-25 06:05:00,
2013-01-24 22:35:00,46.0,46.0,30.10,East,92,0.0,0.0,100,0.00,,,0.16,Wunderground v.1.15,2013-01-25 06:35:00,
2013-01-24 23:05:00,45.8,45.8,30.10,East,93,0.0,0.0,100,0.00,,,0.16,Wunderground v.1.15,2013-01-25 07:05:00,
2013-01-24 23:35:00,45.7,45.7,30.11,East,93,0.0,0.0,100,0.00,,,0.17,Wunderground v.1.15,2013-01-25 07:35:00,